Location: Unspecified
(0.0000°N, 0.0000°E)
Time: 13:27:56
(UTC+00:00)

Vanguard 2 - Pass Details

Date: 24 September 2019
Orbit: 554 x 2937 km, 32.9° (Epoch: 13 October)

Event Time Altitude Azimuth Distance (km) Brightness Sun altitude
Rises 10:43:38 0° 295° (WNW) 2,890 10.3 72.9°
Reaches altitude 10° 10:46:05 10° 289° (WNW) 1,875 9.5 73.5°
Maximum altitude 10:49:58 47° 215° (SW) 735 8.1 74.4°
Drops below altitude 10° 10:53:58 10° 140° (SE) 1,924 9.9 75.4°
Sets 10:56:31 0° 133° (SE) 2,978 10.7 76.1°
